Location: Unspecified
(0.0000°N, 0.0000°E)
Time: 00:34:37
(UTC+00:00)

ISS - Visible Passes

Search period start: 02 October 2022 00:00
Search period end: 12 October 2022 00:00
Orbit: 416 x 420 km, 51.6° (Epoch: 01 October)

Date Brightness Start Highest point End Pass type
(mag) Time Alt. Az. Time Alt. Az. Time Alt. Az.
09 Oct -2.6 18:46:36 10° N 18:49:10 26° NE 18:49:10 26° NE visible
10 Oct -1.2 19:36:38 10° WNW 19:39:06 20° WSW 19:39:06 20° WSW visible
11 Oct -2.6 18:49:10 10° NW 18:52:25 45° SW 18:55:40 10° SSE visible
